Lexington Weather

Lexington, Massachusetts, USA

39°F
3/2/2024 8:24am 
  • Lexington Conditions: Mostly cloudy
  • Temperature: 38.5°F / 3.6°CWarmer 1.5°F than last hour.
  • Dew Point: 32.9°FIncreased 1.4°Fsince last hour.
  • Relative Humidity: 80
  • Wind: Calm, 10-min avg: Calm, gust: None
  • Barometer: 30.45 in Steady
  • Visibility: 10 miles
  • Rain Today: 0.00 in
  •   

Regional Weather Roundup
for Boston, MA

        
000
ASUS41 KBOX 282210
RWRBOX

REGIONAL WEATHER ROUNDUP
NATIONAL WEATHER SERVICE BOSTON/NORTON MA
500 PM EST WED FEB 28 2024

NOTE:  "FAIR" INDICATES FEW OR NO CLOUDS BELOW 12,000 FEET WITH NO 
SIGNIFICANT WEATHER AND/OR OBSTRUCTIONS TO VISIBILITY.

MAZALL-282300-
EASTERN MASSACHUSETTS
  
CITY           SKY/WX    TMP DP  RH WIND       PRES   REMARKS
BOSTON         CLOUDY    55  52  89 S25G38    29.55F                  
BEVERLY        LGT RAIN  54  51  90 S14G26    29.54F                  
LAWRENCE       CLOUDY    58  51  78 S17G30    29.53F                  
BEDFORD        CLOUDY    57  52  83 S15G26    29.52F                  
NORWOOD        CLOUDY    57  51  80 S17G29    29.57F                  
MARSHFIELD     CLOUDY    55  52  88 S21G30    29.61F                  
PLYMOUTH       CLOUDY    52  50  93 S17G32    29.64F                  
TAUNTON        CLOUDY    57  51  80 S14G33    29.62F                  
NEW BEDFORD    LGT RAIN  53  51  93 S21G31    29.65F                  
$$

MAZALL-282300-
CAPE COD AND THE ISLANDS
  
CITY           SKY/WX    TMP DP  RH WIND       PRES   REMARKS
FALMOUTH       CLOUDY    52  52 100 SW25G35   29.68F FOG              
HYANNIS        FOG       47  46  97 S16G26    29.69F VSB 1/4          
CHATHAM        CLOUDY    51  30  44 S12G31    29.71F HAZE             
PROVINCETOWN   CLOUDY    48  48 100 S22G32    29.66F FOG              
NANTUCKET      FOG       50  50 100 S29G41    29.73F VSB 1/4          
MARTHAS VNYRD  CLOUDY    50  49  96 S18G28    29.69F FOG              
$$
 
MAZALL-282300-
CENTRAL AND WESTERN MASSACHUSETTS
  
CITY           SKY/WX    TMP DP  RH WIND       PRES   REMARKS
WORCESTER      LGT RAIN  54  51  90 SW17G30   29.54S FOG              
FITCHBURG      LGT RAIN  57  51  80 S12       29.53R                  
ORANGE         LGT RAIN  54  51  90 S14G26    29.51F                  
SPRINGFIELD    RAIN      54  52  94 S14       29.50F FOG              
WESTFIELD      LGT RAIN  54  52  93 S12G21    29.52F                  
NORTH ADAMS    LGT RAIN  61  52  72 SW16G23   29.45F                  
PITTSFIELD     CLOUDY    54  51  90 S14G23    29.45F                  
$$
 
RIZALL-282300-
RHODE ISLAND
  
CITY           SKY/WX    TMP DP  RH WIND       PRES   REMARKS
PROVIDENCE     LGT RAIN  53  52  96 S17G32    29.62F                  
NEWPORT        CLOUDY    48  47  96 S18G26    29.64F FOG              
BLOCK ISLAND   CLOUDY    48  47  96 S21G28    29.65F FOG              
SMITHFIELD     CLOUDY    55  53  93 SW12G22   29.59F                  
WESTERLY       CLOUDY    50  47  89 S9        29.65S FOG              
$$
 
CTZALL-282300-
CONNECTICUT
  
CITY           SKY/WX    TMP DP  RH WIND       PRES   REMARKS
BRADLEY INTL   LGT RAIN  54  51  90 S17       29.55S                  
HARTFORD       CLOUDY    56  52  86 S13G24    29.56R                  
PLAINVILLE     LGT RAIN  53  53 100 S7        29.56R                  
BRIDGEPORT     CLOUDY    50  47  89 SW15      29.57S                  
DANBURY        CLOUDY    56  51  84 S8        29.55F                  
GROTON         CLOUDY    50  49  96 S12       29.63F                  
NEW HAVEN      LGT RAIN  51  48  89 SW13G26   29.59R FOG              
CHESTER        CLOUDY    52  52 100 S9G23     29.60S FOG              
MERIDEN        LGT RAIN  53  49  86 S12       29.58R                  
WILLIMANTIC    CLOUDY    55  51  86 S13G33    29.59R                  
OXFORD         LGT RAIN  51  51 100 S10G16    29.57S FOG              
$$

MEZ002-015-021-024-NHZ003-005-008-011-012-014-VTZ005-008-282300-
NORTHERN NEW ENGLAND
  
CITY           SKY/WX    TMP DP  RH WIND       PRES   REMARKS
PORTLAND ME    FOG       46  46 100 S16G30    29.53F VSB 1            
BANGOR ME      LGT RAIN  48  46  93 S25G40    29.56S FOG              
CONCORD NH     CLOUDY    55  53  93 S10       29.48F                  
MANCHESTER NH  CLOUDY    59  52  77 S12       29.48F                  
NASHUA NH      LGT RAIN  58  57  97 VRB7      29.52S                  
PORTSMOUTH NH  LGT RAIN  53  50  89 S10       29.51F                  
JAFFREY NH     CLOUDY    55  51  86 S12G28    29.49F                  
KEENE NH       CLOUDY    55  52  89 SW7       29.47F                  
BURLINGTON VT  CLOUDY    59  52  77 SW16G38   29.27S                  
MT. WASHINGTON DRZL/FOG  37  37 100 SW44G58     N/A  VSB 0   WCI  23  
$$

NYZ052-076-282300-
EASTERN NEW YORK
  
CITY           SKY/WX    TMP DP  RH WIND       PRES   REMARKS
ALBANY         CLOUDY    59  53  80 SE21G33   29.36F                  
NEW YORK CITY  LGT RAIN  53  48  83 S9        29.57S                  
$$
 
ANZALL-282300-
MARINE OBSERVATIONS
  
STATION/POSITION TIME  TEMP    WIND        PRES    VSBY  WAVE
                       AIR SEA DIR/SP/G                  HT/PER
                 (UTC) (F)     (DEG/KT/KT) (MB)    (MI)  (FT/S)
BOSTON BUOY      2150   50 40  180/ 21/ 25 1001.2F         5/ 5
BUZZARDS BAY     2100   46     190/ 22/ 23 1005.7F
NANTUCKET SOUND  2150   47 38  180/ 19/ 25 1005.2F         3/ 4
MASS BAY-STELLWA 2004   46 40  180/ 16/ 19 1002.6F  1 7/8  5/ 6
ISLE OF SHOALS   2100   46     170/ 28/ 31  999.9F
S OF BLOCK IS    2156      42                N/A          12/10
$$

......................KEY.........................
  SKY/WX - SKY CONDITION/PRESENT WEATHER
  TMP    - TEMPERATURE IN FAHRENHEIT
  DWPT   - DEWPOINT IN FAHRENHEIT
  RH     - RELATIVE HUMIDITY IN PERCENT
  WIND   - DIRECTION AND SPEED IN MPH
  PRES   - MEAN SEA LEVEL PRESSURE IN INCHES OF HG
  WCI    - WIND CHILL INDEX
  VSB    - VISIBILITY IN MILES
  HX     - HEAT INDEX
  TC     - TEMPERATURE IN CELSIUS
  VRB    - VARIABLE WIND DIRECTION
  N/A    - NOT AVAILABLE
  
      

Other recent Regional Weather Roundups

Sat Mar 2, 8:10am EST

Sat Mar 2, 7:10am EST

Sat Mar 2, 6:10am EST

Sat Mar 2, 5:10am EST

Sat Mar 2, 4:10am EST

Sat Mar 2, 3:10am EST

Sat Mar 2, 2:10am EST

Sat Mar 2, 1:10am EST

Sat Mar 2, 12:10am EST

Fri Mar 1, 11:10pm EST

Fri Mar 1, 10:10pm EST

Fri Mar 1, 9:10pm EST

Fri Mar 1, 8:10pm EST

Fri Mar 1, 7:10pm EST

Fri Mar 1, 6:10pm EST

Fri Mar 1, 5:10pm EST

Fri Mar 1, 4:10pm EST

Fri Mar 1, 3:10pm EST

Fri Mar 1, 2:10pm EST

Fri Mar 1, 1:10pm EST

Fri Mar 1, 12:10pm EST

Fri Mar 1, 11:10am EST

Fri Mar 1, 10:10am EST

Fri Mar 1, 9:10am EST

Fri Mar 1, 8:10am EST

Fri Mar 1, 7:10am EST

Fri Mar 1, 6:10am EST

Fri Mar 1, 5:10am EST

Fri Mar 1, 4:10am EST

Fri Mar 1, 3:10am EST

Fri Mar 1, 2:10am EST

Fri Mar 1, 1:10am EST

Fri Mar 1, 12:10am EST

Thu Feb 29, 11:10pm EST

Thu Feb 29, 10:10pm EST

Thu Feb 29, 9:10pm EST

Thu Feb 29, 8:10pm EST

Thu Feb 29, 7:10pm EST

Thu Feb 29, 6:10pm EST

Thu Feb 29, 5:10pm EST

Thu Feb 29, 4:10pm EST

Thu Feb 29, 3:10pm EST

Thu Feb 29, 2:10pm EST

Thu Feb 29, 1:10pm EST

Thu Feb 29, 12:10pm EST

Thu Feb 29, 11:10am EST

Thu Feb 29, 10:10am EST

Thu Feb 29, 9:10am EST

Thu Feb 29, 8:10am EST

Thu Feb 29, 7:10am EST

Thu Feb 29, 6:10am EST

Thu Feb 29, 5:10am EST

Thu Feb 29, 4:10am EST

Thu Feb 29, 3:10am EST

Thu Feb 29, 2:10am EST

Thu Feb 29, 1:10am EST

Thu Feb 29, 12:10am EST

Wed Feb 28, 11:10pm EST

Wed Feb 28, 10:10pm EST

Wed Feb 28, 9:10pm EST

Wed Feb 28, 8:10pm EST

Wed Feb 28, 7:10pm EST

Wed Feb 28, 6:10pm EST

Wed Feb 28, 4:10pm EST

Wed Feb 28, 3:10pm EST

Wed Feb 28, 2:10pm EST

Wed Feb 28, 1:10pm EST

Wed Feb 28, 12:10pm EST

Wed Feb 28, 11:10am EST

Wed Feb 28, 10:10am EST

Wed Feb 28, 9:10am EST

Wed Feb 28, 8:10am EST

Wed Feb 28, 7:10am EST

Wed Feb 28, 6:10am EST

Wed Feb 28, 5:10am EST

Wed Feb 28, 4:10am EST

Wed Feb 28, 3:10am EST

Wed Feb 28, 2:10am EST

Wed Feb 28, 1:10am EST

Wed Feb 28, 12:10am EST

Tue Feb 27, 11:10pm EST

Tue Feb 27, 10:10pm EST

Tue Feb 27, 9:10pm EST

Tue Feb 27, 8:10pm EST

Tue Feb 27, 7:10pm EST

Tue Feb 27, 6:10pm EST

Tue Feb 27, 5:10pm EST

Tue Feb 27, 4:10pm EST

Tue Feb 27, 3:10pm EST

Tue Feb 27, 2:10pm EST

Tue Feb 27, 1:10pm EST

Tue Feb 27, 12:10pm EST

Tue Feb 27, 11:10am EST

Tue Feb 27, 10:10am EST

Tue Feb 27, 9:10am EST

Tue Feb 27, 8:10am EST

Tue Feb 27, 7:10am EST

Tue Feb 27, 6:10am EST

Tue Feb 27, 5:10am EST

Tue Feb 27, 4:10am EST

Tue Feb 27, 3:10am EST

Tue Feb 27, 2:10am EST

Tue Feb 27, 1:10am EST

Tue Feb 27, 12:10am EST

Mon Feb 26, 11:10pm EST

Mon Feb 26, 10:10pm EST

Mon Feb 26, 9:10pm EST

Mon Feb 26, 8:10pm EST

Mon Feb 26, 7:10pm EST

Mon Feb 26, 6:10pm EST

Mon Feb 26, 5:10pm EST

Mon Feb 26, 4:10pm EST

Mon Feb 26, 3:10pm EST

Mon Feb 26, 2:10pm EST

Mon Feb 26, 1:10pm EST

Mon Feb 26, 12:10pm EST

Mon Feb 26, 11:10am EST

Mon Feb 26, 10:10am EST

Mon Feb 26, 9:10am EST

Mon Feb 26, 8:10am EST

Mon Feb 26, 7:10am EST

Mon Feb 26, 6:10am EST

Mon Feb 26, 5:10am EST

Mon Feb 26, 4:10am EST

Mon Feb 26, 3:10am EST

Mon Feb 26, 2:10am EST

Mon Feb 26, 1:10am EST

Mon Feb 26, 12:10am EST

Sun Feb 25, 11:10pm EST

Sun Feb 25, 10:10pm EST

Sun Feb 25, 9:10pm EST

Sun Feb 25, 8:10pm EST

Sun Feb 25, 7:10pm EST

Sun Feb 25, 6:10pm EST

Sun Feb 25, 5:10pm EST

Sun Feb 25, 4:10pm EST

Sun Feb 25, 3:10pm EST

Sun Feb 25, 2:10pm EST

Sun Feb 25, 1:10pm EST

Sun Feb 25, 12:10pm EST

Sun Feb 25, 11:10am EST

Sun Feb 25, 10:10am EST

Sun Feb 25, 9:10am EST

Sun Feb 25, 8:10am EST

Sun Feb 25, 7:10am EST

Sun Feb 25, 6:10am EST

Sun Feb 25, 5:10am EST

Sun Feb 25, 4:10am EST

Sun Feb 25, 3:10am EST

Sun Feb 25, 2:10am EST

Sun Feb 25, 1:10am EST

Sun Feb 25, 12:10am EST

Sat Feb 24, 11:10pm EST

Sat Feb 24, 10:10pm EST

Sat Feb 24, 9:10pm EST

Sat Feb 24, 8:10pm EST

Sat Feb 24, 7:10pm EST

Sat Feb 24, 6:10pm EST

Sat Feb 24, 5:10pm EST

Sat Feb 24, 4:10pm EST

Sat Feb 24, 3:10pm EST

Sat Feb 24, 2:10pm EST

Sat Feb 24, 1:10pm EST

Sat Feb 24, 12:10pm EST

Sat Feb 24, 11:10am EST

Sat Feb 24, 10:10am EST

Sat Feb 24, 9:10am EST